Regional Weather Roundup
Issued by NWS Charleston, WV

Home | Current Version | Previous Version | Graphics & Text | Print | Product List | Glossary Off
Versions: 1 2 3 4 5 6 7 8 9 10 11 12 13 14 15 16 17 18 19 20 21 22 23 24 25 26 27 28 29 30 31 32 33 34 35 36 37 38 39 40 41 42 43 44 45 46 47 48 49 50

000
ASUS41 KRLX 281210
RWRRLX
West Virginia Regional Weather Roundup
National Weather Service Charleston WV
800 AM EDT MON JUL 28 2014

Note: "fair" indicates few or no clouds below 12,000 feet with no
significant weather and/or obstructions to visibility.

WVZ003-281300-
Northern Panhandle of West Virginia

CITY           SKY/WX    TMP DP  RH WIND       PRES   REMARKS
WHEELING       MOSUNNY   62  58  86 W12       29.75R
$$

WVZ009-281300-
Northwest West Virginia

CITY           SKY/WX    TMP DP  RH WIND       PRES   REMARKS
PARKERSBURG      N/A    N/A N/A N/A MISG        N/A
$$

WVZ006-281300-
Western West Virginia

CITY           SKY/WX    TMP DP  RH WIND       PRES   REMARKS
HUNTINGTON     SUNNY     65  61  87 W6        29.85R
$$

WVZ015-281300-
West Central West Virginia

CITY           SKY/WX    TMP DP  RH WIND       PRES   REMARKS
CHARLESTON     MOSUNNY   67  64  90 W9        29.83R
$$

WVZ031-281300-
North Central West Virginia

CITY           SKY/WX    TMP DP  RH WIND       PRES   REMARKS
CLARKSBURG     MOSUNNY   66  60  81 W12       29.77R
MORGANTOWN     CLOUDY    67  59  75 W6        29.76R
$$

WVZ035-042-045-281300-
South Central West Virginia

CITY           SKY/WX    TMP DP  RH WIND       PRES   REMARKS
BECKLEY        PTSUNNY   64  59  83 W8        29.88R
BLUEFIELD      CLOUDY    65  58  78 W12G17    29.92R
LEWISBURG      MOSUNNY   68  58  69 W12G18    29.84S
$$

WVZ047-281300-
Northern Mountains of West Virginia

CITY           SKY/WX    TMP DP  RH WIND       PRES   REMARKS
ELKINS         CLOUDY    65  57  75 W13G25    29.80R
$$

WVZ052-281300-
Eastern Panhandle of West Virginia

CITY           SKY/WX    TMP DP  RH WIND       PRES   REMARKS
MARTINSBURG    CLOUDY    73  61  65 W12       29.65R
PETERSBURG     MOSUNNY   70  54  56 W16       29.71R
$$


USA.gov is the U.S. government's official web portal to all federal, state and local government web resources and services.